Weather History for Placerville, CA

Change the Weather History Date:

Thursday, January 16, 2014

  Actual Average Record
Temperature  
Mean Temperature 62 °F -  
Max Temperature 68 °F 54 °F 68 °F (2014)
Min Temperature 57 °F 34 °F 41 °F (2013)
Degree Days  
Heating Degree Days 2    
Growing Degree Days 12 (Base 50)    
Moisture  
Dew Point 9 °F    
Average Humidity 14    
Maximum Humidity 31    
Minimum Humidity 5    
Precipitation  
Precipitation 0.00 in - - ()
Sea Level Pressure  
Sea Level Pressure 30.25 in    
Wind  
Wind Speed 3 mph (SE)    
Max Wind Speed 8 mph    
Max Gust Speed -    
Visibility 10 miles    
Events      
Averages and records for this station are not official NWS values.
T = Trace of Precipitation, MM = Missing Value Source: NWS Daily Summary

Daily Weather History Graph

Daily Weather History Graph

Search for Another Location

Airport:

Trip Planner

Search our weather history database for the weather conditions in past years. The results will help you decide how hot, cold, wet, or windy it might be!

Date:

Astronomy

Jan. 16, 2014 Rise Set
Actual Time 7:19 AM PST 5:06 PM PST
Civil Twilight 6:50 AM PST 5:35 PM PST
Nautical Twilight 6:17 AM PST 6:08 PM PST
Astronomical Twilight 5:45 AM PST 6:40 PM PST
Moon 6:02 PM PST (1/16) 7:16 AM PST (1/16)
Length of Visible Light 10h 45m
Length of Day
9h 47m
Full, 100% of the Moon is Illuminated
Jan 16
Full
Jan 23
Last Quarter
Jan 30
New
Feb 6
First Quarter
Feb 14
Full

Hourly Weather History & Observations

Time (PST) Temp. Dew Point Humidity Pressure Visibility Wind Dir Wind Speed Gust Speed Precip Events Conditions
12:15 AM 62.6 °F 1.4 °F 9% 30.28 in 10.0 mi ESE 3.5 mph - N/A   Clear
12:35 AM 62.6 °F 3.2 °F 9% 30.28 in 10.0 mi SE 3.5 mph - N/A   Clear
12:55 AM 62.6 °F -2.2 °F 7% 30.28 in 10.0 mi ESE 5.8 mph - N/A   Clear
1:15 AM 62.6 °F -2.2 °F 7% 30.28 in 10.0 mi East 5.8 mph - N/A   Clear
1:35 AM 62.6 °F -0.4 °F 8% 30.28 in 10.0 mi East 3.5 mph - N/A   Clear
1:55 AM 64.4 °F 5.0 °F 10% 30.28 in 10.0 mi Calm Calm - N/A   Clear
2:15 AM 59.0 °F -2.2 °F 8% 30.28 in 10.0 mi ESE 4.6 mph - N/A   Clear
2:35 AM 57.2 °F -2.2 °F 9% 30.28 in 10.0 mi Calm Calm - N/A   Clear
2:55 AM 59.0 °F -0.4 °F 9% 30.28 in 10.0 mi East 3.5 mph - N/A   Clear
3:15 AM 59.0 °F -2.2 °F 8% 30.27 in 10.0 mi Calm Calm - N/A   Clear
3:35 AM 59.0 °F -4.0 °F 8% 30.27 in 10.0 mi SE 3.5 mph - N/A   Clear
3:55 AM 62.6 °F -0.4 °F 8% 30.27 in 10.0 mi Calm Calm - N/A   Clear
4:15 AM 60.8 °F -7.6 °F 6% 30.26 in 10.0 mi East 3.5 mph - N/A   Clear
4:35 AM 60.8 °F -7.6 °F 6% 30.26 in 10.0 mi East 4.6 mph - N/A   Clear
4:55 AM 59.0 °F -7.6 °F 6% 30.26 in 10.0 mi NNE 3.5 mph - N/A   Clear
5:15 AM 59.0 °F -7.6 °F 6% 30.26 in 10.0 mi East 4.6 mph - N/A   Clear
5:35 AM 62.6 °F -9.4 °F 5% 30.26 in 10.0 mi ESE 3.5 mph - N/A   Clear
5:55 AM 60.8 °F -7.6 °F 6% 30.26 in 10.0 mi Calm Calm - N/A   Clear
6:15 AM 60.8 °F -0.4 °F 8% 30.26 in 10.0 mi Calm Calm - N/A   Clear
6:35 AM 57.2 °F -0.4 °F 10% 30.26 in 10.0 mi Calm Calm - N/A   Clear
6:55 AM 57.2 °F -0.4 °F 10% 30.27 in 10.0 mi Calm Calm - N/A   Clear
7:15 AM 59.0 °F -0.4 °F 9% 30.27 in 10.0 mi Calm Calm - N/A   Clear
7:35 AM 59.0 °F -0.4 °F 9% 30.27 in 10.0 mi South 3.5 mph - N/A   Clear
7:55 AM 59.0 °F 1.4 °F 10% 30.28 in 10.0 mi SSE 3.5 mph - N/A   Clear
8:15 AM 60.8 °F 5.0 °F 11% 30.28 in 10.0 mi ESE 5.8 mph - N/A   Clear
8:35 AM 62.6 °F -0.4 °F 8% 30.28 in 10.0 mi SW 3.5 mph - N/A   Clear
8:55 AM 60.8 °F -0.4 °F 8% 30.29 in 10.0 mi Calm Calm - N/A   Clear
9:15 AM 62.6 °F 1.4 °F 9% 30.29 in 10.0 mi West 3.5 mph - N/A   Clear
9:35 AM 64.4 °F 1.4 °F 8% 30.30 in 10.0 mi SW 3.5 mph - N/A   Clear
9:55 AM 64.4 °F 3.2 °F 9% 30.30 in 10.0 mi West 3.5 mph - N/A   Clear
10:15 AM 64.4 °F 5.0 °F 10% 30.30 in 10.0 mi Calm Calm - N/A   Clear
10:35 AM 66.2 °F 10.4 °F 11% 30.30 in 10.0 mi Calm Calm - N/A   Clear
10:55 AM 66.2 °F 10.4 °F 11% 30.29 in 10.0 mi Calm Calm - N/A   Clear
11:15 AM 66.2 °F 15.8 °F 14% 30.28 in 10.0 mi SW 3.5 mph - N/A   Clear
11:35 AM 68.0 °F 17.6 °F 15% 30.28 in 10.0 mi SW 4.6 mph - N/A   Clear
11:55 AM 68.0 °F 17.6 °F 15% 30.27 in 10.0 mi SW 3.5 mph - N/A   Clear
12:35 PM 66.2 °F 14.0 °F 13% 30.25 in 10.0 mi West 4.6 mph - N/A   Clear
12:55 PM 68.0 °F 10.4 °F 11% 30.24 in 10.0 mi West 4.6 mph - N/A   Clear
1:15 PM 66.2 °F 14.0 °F 13% 30.23 in 10.0 mi NNW 4.6 mph - N/A   Clear
1:35 PM 66.2 °F 15.8 °F 14% 30.22 in 10.0 mi NW 3.5 mph - N/A   Clear
1:55 PM 66.2 °F 15.8 °F 14% 30.21 in 10.0 mi NW 3.5 mph - N/A   Clear
2:15 PM 68.0 °F 17.6 °F 15% 30.21 in 10.0 mi WNW 3.5 mph - N/A   Clear
2:35 PM 68.0 °F 15.8 °F 13% 30.21 in 10.0 mi WNW 4.6 mph - N/A   Clear
2:55 PM 66.2 °F 15.8 °F 14% 30.21 in 10.0 mi WNW 3.5 mph - N/A   Clear
3:15 PM 66.2 °F 15.8 °F 14% 30.21 in 10.0 mi WNW 3.5 mph - N/A   Clear
3:35 PM 66.2 °F 15.8 °F 14% 30.21 in 10.0 mi WNW 3.5 mph - N/A   Clear
3:55 PM 66.2 °F 12.2 °F 12% 30.21 in 10.0 mi Calm Calm - N/A   Clear
4:15 PM 66.2 °F 24.8 °F 21% 30.21 in 10.0 mi WSW 4.6 mph - N/A   Clear
4:35 PM 64.4 °F 26.6 °F 24% 30.21 in 10.0 mi SW 4.6 mph - N/A   Clear
4:55 PM 60.8 °F 26.6 °F 27% 30.21 in 10.0 mi SW 3.5 mph - N/A   Clear
5:15 PM 59.0 °F 26.6 °F 29% 30.21 in 10.0 mi SW 3.5 mph - N/A   Clear
5:35 PM 59.0 °F 26.6 °F 29% 30.21 in 10.0 mi South 3.5 mph - N/A   Clear
5:55 PM 59.0 °F 26.6 °F 29% 30.21 in 10.0 mi Calm Calm - N/A   Clear
6:15 PM 59.0 °F 26.6 °F 29% 30.21 in 10.0 mi ESE 5.8 mph - N/A   Clear
6:35 PM 59.0 °F 24.8 °F 27% 30.21 in 10.0 mi East 4.6 mph - N/A   Clear
6:55 PM 57.2 °F 26.6 °F 31% 30.21 in 10.0 mi SE 5.8 mph - N/A   Clear
7:15 PM 59.0 °F 24.8 °F 27% 30.21 in 10.0 mi SE 5.8 mph - N/A   Clear
7:35 PM 59.0 °F 24.8 °F 27% 30.21 in 10.0 mi SE 6.9 mph - N/A   Clear
7:55 PM 59.0 °F 23.0 °F 25% 30.22 in 10.0 mi SE 6.9 mph - N/A   Clear
8:15 PM 59.0 °F 19.4 °F 22% 30.22 in 10.0 mi SE 8.1 mph - N/A   Clear
8:35 PM 59.0 °F 17.6 °F 20% 30.23 in 10.0 mi SE 6.9 mph - N/A   Clear
8:55 PM 59.0 °F 17.6 °F 20% 30.23 in 10.0 mi ESE 6.9 mph - N/A   Clear
9:15 PM 59.0 °F 12.2 °F 16% 30.23 in 10.0 mi ESE 6.9 mph - N/A   Clear
9:35 PM 59.0 °F 12.2 °F 16% 30.23 in 10.0 mi East 6.9 mph - N/A   Clear
9:55 PM 57.2 °F 8.6 °F 14% 30.23 in 10.0 mi ESE 5.8 mph - N/A   Clear
10:15 PM 59.0 °F 6.8 °F 13% 30.23 in 10.0 mi ESE 6.9 mph - N/A   Partly Cloudy
10:35 PM 59.0 °F 1.4 °F 10% 30.23 in 10.0 mi ESE 6.9 mph - N/A   Clear
10:55 PM 57.2 °F 5.0 °F 12% 30.23 in 10.0 mi ESE 4.6 mph - N/A   Clear
11:15 PM 57.2 °F 5.0 °F 12% 30.22 in 10.0 mi East 5.8 mph - N/A   Clear
11:35 PM 57.2 °F 5.0 °F 12% 30.22 in 10.0 mi East 5.8 mph - N/A   Clear
11:55 PM 60.8 °F 3.2 °F 10% 30.22 in 10.0 mi ESE 5.8 mph - N/A   Clear